User: anonymous   Login
Location: Unspecified
(0.0000°N, 0.0000°E)
Time: 12:05:29
(UTC+00:00)
Language:

AEHF 4 (USA 288) - Orbit

View from above orbital plane
View from above orbital plane
View from above satellite
View from above satellite

Ground track
Ground track

The orbit data is extracted from the following two-line orbital elements,

1 43651U 18079A   22269.48799312 -.00000275  00000-0  00000-0 0  9993
2 43651   2.3752 317.5124 0003997 222.2018 293.7708  1.00271633 14664
Epoch (UTC): 26 September 2022 11:42:42
Eccentricity: 0.0003997
inclination: 2.3752°
perigee height: 35769 km
apogee height: 35803 km
right ascension of ascending node: 317.5124°
argument of perigee: 222.2018°
revolutions per day: 1.00271633
mean anomaly at epoch: 293.7708°
orbit number at epoch: 1466

The dashed part of the orbit path shows where the satellite is in the earth's shadow,  

DLR